Weather History for Cape Girardeau, MO

Change the Weather History Date:

Monday, January 21, 2013

  Actual Average Record
Temperature  
Mean Temperature 30 °F 33 °F  
Max Temperature 37 °F 43 °F 68 °F (1986)
Min Temperature 22 °F 24 °F -9 °F (1984)
Degree Days  
Heating Degree Days 35 32  
Month to date heating degree days 610 672  
Since 1 July heating degree days 2234 2423  
Cooling Degree Days 0 0  
Month to date cooling degree days 0 0  
Year to date cooling degree days 0 0  
Moisture  
Dew Point 11 °F    
Average Humidity 52    
Maximum Humidity 69    
Minimum Humidity 35    
Precipitation  
Precipitation 0.00 in 0.11 in 4.87 in (1999)
Month to date precipitation 2.71 2.33  
Year to date precipitation 2.71 2.33  
Sea Level Pressure  
Sea Level Pressure 30.34 in    
Wind  
Wind Speed 11 mph (NNW)    
Max Wind Speed 23 mph    
Max Gust Speed 28 mph    
Visibility 10 miles    
Events      
T = Trace of Precipitation, MM = Missing Value Source: NWS Daily Summary

Daily Weather History Graph

Daily Weather History Graph

Search for Another Location

Airport:

Trip Planner

Search our weather history database for the weather conditions in past years. The results will help you decide how hot, cold, wet, or windy it might be!

Date:

Astronomy

Jan. 21, 2013 Rise Set
Actual Time 7:08 AM CST 5:11 PM CST
Civil Twilight 6:40 AM CST 5:39 PM CST
Nautical Twilight 6:08 AM CST 6:11 PM CST
Astronomical Twilight 5:37 AM CST 6:42 PM CST
Moon 12:51 PM CST (1/21) 2:36 AM CST (1/21)
Length of Visible Light 10h 58m
Length of Day
10h 02m
Waxing Gibbous, 75% of the Moon is Illuminated
Jan 21
Waxing Gibbous
Jan 26
Full
Feb 3
Last Quarter
Feb 10
New
Feb 17
First Quarter

Hourly Weather History & Observations

Time (CST) Temp. Windchill Dew Point Humidity Pressure Visibility Wind Dir Wind Speed Gust Speed Precip Events Conditions
12:53 AM 28.0 °F 20.8 °F 19.0 °F 69% 30.27 in 10.0 mi NNW 6.9 mph - N/A   Clear
1:53 AM 28.0 °F 21.7 °F 17.1 °F 63% 30.28 in 10.0 mi North 5.8 mph - N/A   Clear
2:53 AM 28.0 °F 18.1 °F 17.1 °F 63% 30.30 in 10.0 mi North 11.5 mph - N/A   Clear
3:53 AM 27.0 °F 17.3 °F 17.1 °F 66% 30.30 in 10.0 mi NNW 10.4 mph - N/A   Clear
4:53 AM 26.1 °F 16.2 °F 16.0 °F 66% 30.32 in 10.0 mi NNW 10.4 mph - N/A   Clear
5:53 AM 24.1 °F 13.1 °F 14.0 °F 65% 30.34 in 10.0 mi North 11.5 mph - N/A   Clear
6:53 AM 23.0 °F 11.7 °F 12.9 °F 65% 30.37 in 10.0 mi NNW 11.5 mph - N/A   Clear
7:53 AM 24.1 °F 16.0 °F 12.9 °F 62% 30.38 in 10.0 mi NNW 6.9 mph - N/A   Clear
8:53 AM 26.1 °F 16.2 °F 12.0 °F 55% 30.38 in 10.0 mi NNW 10.4 mph - N/A   Clear
9:53 AM 27.0 °F 15.6 °F 10.9 °F 51% 30.39 in 10.0 mi NNW 13.8 mph - N/A   Clear
10:53 AM 30.0 °F 21.1 °F 10.9 °F 45% 30.38 in 10.0 mi NW 10.4 mph 18.4 mph N/A   Clear
11:53 AM 30.9 °F 22.2 °F 10.9 °F 43% 30.34 in 10.0 mi WNW 10.4 mph - N/A   Clear
12:53 PM 33.1 °F 24.9 °F 12.0 °F 42% 30.30 in 10.0 mi NW 10.4 mph - N/A   Clear
1:53 PM 36.0 °F 26.0 °F 12.9 °F 39% 30.29 in 10.0 mi NW 17.3 mph 25.3 mph N/A   Clear
2:53 PM 36.0 °F 25.3 °F 12.0 °F 37% 30.30 in 10.0 mi NNW 19.6 mph 27.6 mph N/A   Clear
3:53 PM 35.1 °F 26.4 °F 10.0 °F 35% 30.31 in 10.0 mi NNW 12.7 mph 20.7 mph N/A   Clear
4:53 PM 32.0 °F 23.0 °F 10.0 °F 40% 30.32 in 10.0 mi NNW 11.5 mph - N/A   Clear
5:53 PM 28.9 °F 19.8 °F 10.9 °F 47% 30.33 in 10.0 mi North 10.4 mph - N/A   Clear
6:53 PM 28.0 °F 20.0 °F 10.9 °F 49% 30.34 in 10.0 mi North 8.1 mph - N/A   Mostly Cloudy
7:53 PM 25.0 °F 18.1 °F 10.9 °F 55% 30.34 in 10.0 mi North 5.8 mph - N/A   Partly Cloudy
8:53 PM 24.1 °F 13.7 °F 3.9 °F 42% 30.36 in 10.0 mi North 10.4 mph - N/A   Mostly Cloudy
9:53 PM 24.1 °F 13.7 °F 3.9 °F 42% 30.37 in 10.0 mi North 10.4 mph - N/A   Partly Cloudy
10:53 PM 23.0 °F 11.1 °F 3.0 °F 42% 30.39 in 10.0 mi North 12.7 mph - N/A   Overcast
11:53 PM 21.9 °F 9.8 °F 1.9 °F 42% 30.40 in 10.0 mi North 12.7 mph - N/A   Overcast